星链-35372(STARLINK-35372)

导读

STARLINK-35372是美国SpaceX公司星链星座的一员,于2025年11月15日发射入轨。星链项目旨在构建全球低轨宽带互联网星座,这颗卫星属于星链全球覆盖阶段的组网卫星,大概率采用第二代Mini技术方案,配备相控阵天线与激光星间链路,运行在近地轨道,为全球用户提供低延迟、高速率的卫星互联网接入服务,助力星链完善全球无缝覆盖的通信网络。

基本信息
目录编号:
66476
目录名称:
STARLINK-35372
国际标识:
2025-262W
轨道中心:
EARTH
卫星名称:
星链-35372
卫星全名:
星链-35372(STARLINK-35372)
卫星状态:
在轨 (已飞行293 天)
发射日期:
2025-11-15 UTC
国别 :
美国 (US)
星等 :
--
轨道信息
数据来源 国际轨道数据
星历时间: 2026-09-04T01:22:17+0800
14小时前
查看轨道信息
半长轴: 6861.134km
偏心率: 0.0002039
轨道倾角: 43.005°
近地点辐角 274.750°
升交点赤经 10.790°
平近点角 85.312°
近地点: 481.598km
远地点: 484.396km
周期: 94.266分钟
每日圈数: 15.275974
详细信息
固有亮度:
5
最大亮度:
2.5
卫星平台:
Starlink V1.0
覆盖范围:
全球
运营商:
太空探索技术公司
运营商所在国:
美国
制造商(研发单位):
太空探索技术公司
制造商所在国:
美国
使用方式:
暂无
卫星简介
Starlink 计划是 SpaceX 推出的全球卫星互联网项目,通过发射低轨道卫星,为全球尤其是偏远地区提供高速、低延迟的互联网服务。自 2019 年起,Starlink 已部署数千颗卫星,旨在缩小全球数字鸿沟,推动互联网普及。该项目还为军事、航空等行业提供通信支持,带来广泛经济效益。
2D轨道图
3D轨道图
轨道高度分析图
轨道倾角分析图
轨道综合分析图
查看轨道综合分析图
交会数据列表
事件ID 空间交会对象 最接近时刻(TCA) 交会距离 交会风险概率(CRP) 交会风险指数(CRI) 操作
CDM_260904-172805-723106-647622
2026-09-04T
17:28:04+0000
0.047 km
近距离
1.411874E-3 极高风险 0.98
CDM_260904-003805-638406-647621
2026-09-04T
00:38:55+0000
0.278 km
中距离
4.325854E-4 高风险 0.88
CDM_260904-083406-186206-647621
2026-09-04T
08:34:24+0000
0.343 km
远距离
2.497761E-4 高风险 0.83
CDM_260904-184606-186206-647621
2026-09-04T
18:46:24+0000
0.375 km
远距离
2.09758E-4 高风险 0.81
CDM_260905-095605-723106-647621
2026-09-05T
09:56:41+0000
0.702 km
远距离
5.449556E-5 中风险 0.7
CDM_260904-184105-638406-647621
2026-09-04T
18:41:41+0000
0.726 km
远距离
5.009617E-5 中风险 0.69
CDM_260904-234205-957306-647621
2026-09-04T
23:42:01+0000
0.883 km
远距离
2.243129E-5 中风险 0.62
CDM_260905-003505-940706-647621
2026-09-05T
00:35:17+0000
1.174 km
极远距离
1.097303E-5 中风险 0.56
CDM_260904-021305-638406-647621
2026-09-04T
02:13:04+0000
1.297 km
极远距离
7.069805E-6 低风险 0.52
CDM_260905-011605-957306-647621
2026-09-05T
01:16:10+0000
1.336 km
极远距离
5.418632E-6 低风险 0.5